Home   Weather   Resolute Bay   Past weeks

Flag for Canada Past Weather in Resolute Bay, Nunavut, Canada — Yesterday and Last 2 Weeks

Now
-24 °F

Snow flurries. Fog.


Feels Like: -51 °F
Forecast: -26 / -13 °F
Wind: 16 mph from North

Location: Resolute

Current Time: Feb 19, 2017 at 10:58:43 am

Latest Report: Feb 19, 2017 at 10:00 am


Visibility: 4 mi

Pressure: 30.02 "Hg

Humidity: 68%

Dew Point: -31 °F

Location of Resolute BayLocation

Past Weather in Resolute Bay — Graph

°F

Resolute Bay Temperature Yesterday

Maximum temperature yesterday: -2 °F (at 12:00 am)
Minimum temperature yesterday: -6 °F (at 9:00 pm)
Average temperature yesterday: -3 °F

High & Low Weather Summary for the Past Weeks

 TemperatureHumidityPressure
High0 °F (Feb 17, 4:00 pm)84% (Feb 17, 12:00 pm)30.33 "Hg (Feb 17, 12:00 pm)
Low-33 °F (Feb 12, 2:00 am)60% (Feb 12, 5:22 am)29.31 "Hg (Feb 9, 11:57 am)
Average-20 °F70%29.75 "Hg
* Reported Feb 4 9:27 am — Feb 19 9:00 am, Resolute Bay, Weather by CustomWeather, © 2017

Note: Actual official high and low records may vary slightly from our data, if they occured in-between our weather recording intervals... More about our weather records

Advertising

Resolute Bay Weather History for the Previous 24 Hours

Scroll right to see more
 ConditionsComfort  
Time TempWeatherWind HumidityBarometerVisibility
9:00 am
Sun, Feb 19
-22 °FSnow flurries. Clear.22 mph68%29.99 "Hg15 mi
8:00 am-24 °FSnow flurries. Clear.14 mph68%29.98 "Hg15 mi
7:00 am-22 °FSnow flurries. Clear.14 mph75%29.95 "Hg15 mi
6:00 am-22 °FSnow flurries. Clear.16 mph75%29.94 "Hg15 mi
5:00 am-20 °FSnow flurries. Clear.15 mph75%29.92 "Hg15 mi
4:00 am-18 °FSnow flurries. Clear.18 mph75%29.88 "Hg5 mi
3:00 am-17 °FSnow flurries. Clear.21 mph76%29.85 "Hg10 mi
2:00 am-13 °FSnow flurries. Clear.23 mph76%29.83 "Hg5 mi
1:00 am-9 °FSnow flurries. Low level haze.23 mph70%29.80 "Hg15 mi
12:41 am-9 °FSnow flurries. Low level haze.22 mph77%29.80 "Hg15 mi
12:00 am-6 °FLight snow. Overcast.15 mph77%29.79 "Hg15 mi
11:00 pm
Sat, Feb 18
-6 °FLight snow. Overcast.9 mph77%29.77 "Hg10 mi
10:00 pm-6 °FLight snow. Overcast.6 mph77%29.77 "Hg15 mi
9:00 pm-6 °FLight snow. Overcast.2 mph77%29.76 "Hg15 mi
8:00 pm-4 °FLight snow. Overcast.7 mph77%29.76 "Hg14 mi
7:00 pm-2 °FLight snow. Mostly cloudy.No wind77%29.76 "Hg14 mi
6:00 pm-2 °FLight snow. Mostly cloudy.No wind77%29.77 "Hg10 mi
5:00 pm-4 °FLight snow. Mostly cloudy.6 mph77%29.77 "Hg2 mi
4:00 pm-4 °FLight snow. Fog.8 mph77%29.78 "Hg2 mi
3:39 pm-4 °FSnow flurries. Fog.7 mph77%29.78 "Hg2 mi
3:00 pm-4 °FLight snow. Ice fog.9 mph77%29.78 "Hg1 mi
2:00 pm-4 °FLight snow. Ice fog.7 mph84%29.79 "Hg1 mi
1:06 pm-2 °FLight snow. Ice fog.8 mph77%29.80 "Hg1 mi
12:58 pm-2 °FLight snow. Ice fog.9 mph77%29.80 "Hg2 mi
12:00 pm-2 °FLight snow. Ice fog.16 mph77%29.83 "Hg1 mi
11:00 am-2 °FLight snow. Ice fog.17 mph77%29.84 "Hg1 mi
10:00 am-2 °FLight snow. Ice fog.15 mph77%29.85 "Hg1 mi
Weather by CustomWeather, © 2017

See weather overviewHow to use our weather pages